Hibbing, MN

5:15 AM CDT on July 23, 2017 (GMT -0500)
Chisholm-hibbing

Weather History for KHIB - January, 2014

Change the Weather History Date:

Friday, January 24, 2014

  Actual Average Record
Temperature  
Mean Temperature 14 °F -  
Max Temperature 28 °F 16 °F 44 °F (1981)
Min Temperature 1 °F -2 °F -31 °F (1987)
Degree Days  
Heating Degree Days 50    
Moisture  
Dew Point 10 °F    
Average Humidity 76    
Maximum Humidity 88    
Minimum Humidity 63    
Precipitation  
Precipitation 0.03 in - - ()
Sea Level Pressure  
Sea Level Pressure 29.53 in    
Wind  
Wind Speed 11 mph (West)    
Max Wind Speed 32 mph    
Max Gust Speed 44 mph    
Visibility 4 miles    
Events Snow    
Averages and records for this station are not official NWS values.
T = Trace of Precipitation, MM = Missing Value Source: NWS Daily Summary

Daily Weather History Graph

Daily Weather History Graph

Search for Another Location

Airport or City:

Trip Planner

Search our weather history database for the weather conditions in past years. The results will help you decide how hot, cold, wet, or windy it might be!

Date:

Astronomy

Jan. 24, 2014 Rise Set
Actual Time 7:46 AM CST 5:01 PM CST
Civil Twilight 7:12 AM CST 5:34 PM CST
Nautical Twilight 6:35 AM CST 6:12 PM CST
Astronomical Twilight 5:59 AM CST 6:48 PM CST
Moon 1:08 AM CST (1/24) 11:24 AM CST (1/24)
Length of Visible Light 10h 21m
Length of Day
9h 14m
Last Quarter, 44% of the Moon is Illuminated
Jan 24
Last Quarter
Jan 30
New
Feb 6
First Quarter
Feb 14
Full
Feb 22
Last Quarter

Hourly Weather History & Observations

Time (CST) Temp. Windchill Dew Point Humidity Pressure Visibility Wind Dir Wind Speed Gust Speed Precip Events Conditions
12:53 AM 1.9 °F -13.8 °F -8.0 °F 63% 29.91 in 10.0 mi SW 10.4 mph 16.1 mph N/A   Overcast
1:18 AM 3.2 °F -12.2 °F -5.8 °F 66% 29.75 in 1.8 mi SSW 10.4 mph 18.4 mph 0.00 in Snow Light Snow
1:37 AM 3.2 °F -11.3 °F -4.0 °F 72% 29.72 in 3.0 mi SW 9.2 mph 18.4 mph 0.00 in Snow Light Snow
1:44 AM 3.2 °F -10.3 °F -4.0 °F 72% 29.71 in 4.0 mi SSW 8.1 mph 18.4 mph 0.00 in Snow Light Snow
1:53 AM 3.9 °F -10.4 °F -4.0 °F 70% 29.83 in 3.0 mi SW 9.2 mph 17.3 mph 0.00 in Snow Light Snow
2:03 AM 5.0 °F -10.0 °F -2.2 °F 72% 29.71 in 2.5 mi SW 10.4 mph - 0.00 in Snow Light Snow
2:14 AM 6.8 °F -4.8 °F -0.4 °F 72% 29.70 in 1.2 mi SW 6.9 mph 16.1 mph 0.00 in Snow Light Snow
2:33 AM 6.8 °F -6.9 °F 1.4 °F 79% 29.68 in 1.0 mi SW 9.2 mph 16.1 mph 0.00 in Snow Light Snow
2:53 AM 7.0 °F -4.5 °F 1.0 °F 77% 29.78 in 1.0 mi Variable 6.9 mph - 0.01 in Snow Light Snow
3:17 AM 6.8 °F -4.8 °F 1.4 °F 79% 29.66 in 1.8 mi SSW 6.9 mph - 0.00 in Snow Light Snow
3:25 AM 8.6 °F -3.7 °F 1.4 °F 73% 29.65 in 2.0 mi SSW 8.1 mph - 0.00 in Snow Light Snow
3:32 AM 8.6 °F -2.6 °F 3.2 °F 79% 29.64 in 1.2 mi Variable 6.9 mph - 0.00 in Snow Light Snow
3:43 AM 8.6 °F -3.7 °F 3.2 °F 79% 29.64 in 3.0 mi SW 8.1 mph - 0.00 in Snow Light Snow
3:53 AM 8.1 °F -2.0 °F 3.0 °F 80% 29.75 in 9.0 mi Variable 5.8 mph - 0.00 in Snow Light Snow
4:53 AM 10.0 °F 0.4 °F 3.9 °F 76% 29.73 in 10.0 mi WSW 5.8 mph - N/A   Overcast
5:53 AM 10.9 °F 2.9 °F 6.1 °F 81% 29.70 in 10.0 mi WSW 4.6 mph - N/A   Overcast
6:53 AM 12.9 °F 6.9 °F 8.1 °F 81% 29.67 in 10.0 mi SW 3.5 mph - N/A   Overcast
7:38 AM 14.0 °F 8.2 °F 8.6 °F 79% 29.54 in 10.0 mi SW 3.5 mph - N/A   Overcast
7:53 AM 14.0 °F 8.2 °F 10.0 °F 84% 29.64 in 10.0 mi WSW 3.5 mph - N/A   Overcast
8:53 AM 16.0 °F 10.4 °F 12.9 °F 88% 29.62 in 5.0 mi West 3.5 mph - N/A   Overcast
9:53 AM 19.0 °F 12.3 °F 15.1 °F 85% 29.60 in 3.0 mi WSW 4.6 mph - N/A   Overcast
10:53 AM 21.9 °F 14.5 °F 18.0 °F 85% 29.57 in 6.0 mi WNW 5.8 mph - N/A   Overcast
11:53 AM 23.0 °F 13.9 °F 19.0 °F 85% 29.53 in 10.0 mi WNW 8.1 mph - N/A   Overcast
12:46 PM 24.8 °F 14.0 °F 19.4 °F 80% 29.41 in 1.8 mi West 11.5 mph 18.4 mph 0.00 in Snow Light Snow
12:53 PM 24.1 °F 13.7 °F 19.9 °F 84% 29.50 in 1.0 mi WNW 10.4 mph 17.3 mph 0.01 in Snow Light Snow
1:06 PM 24.8 °F 14.6 °F 19.4 °F 80% 29.39 in 0.8 mi West 10.4 mph - 0.00 in Snow Light Snow
1:16 PM 24.8 °F 16.9 °F 19.4 °F 80% 29.38 in 0.8 mi West 6.9 mph - 0.00 in Snow Light Snow
1:25 PM 24.8 °F 17.9 °F 21.2 °F 86% 29.37 in 1.0 mi Variable 5.8 mph - 0.00 in Snow Light Snow
1:51 PM 24.8 °F 16.1 °F 21.2 °F 86% 29.37 in 0.8 mi WNW 8.1 mph - 0.00 in Snow Light Snow
1:53 PM 25.0 °F 16.3 °F 21.0 °F 85% 29.45 in 0.8 mi West 8.1 mph - 0.00 in Snow Light Snow
2:23 PM 24.8 °F 15.3 °F 21.2 °F 86% 29.35 in 1.2 mi West 9.2 mph - 0.01 in Snow Light Snow
2:39 PM 26.6 °F 19.1 °F 19.4 °F 74% 29.34 in 2.0 mi West 6.9 mph - 0.01 in Snow Light Snow
2:53 PM 26.1 °F 18.4 °F 19.9 °F 78% 29.42 in 2.5 mi West 6.9 mph - 0.01 in Snow Light Snow
3:04 PM 26.6 °F 18.2 °F 19.4 °F 74% 29.34 in 4.0 mi West 8.1 mph 19.6 mph 0.00 in Snow Light Snow
3:53 PM 27.0 °F 18.0 °F 19.9 °F 75% 29.41 in 10.0 mi WNW 9.2 mph 18.4 mph 0.00 in   Overcast
4:53 PM 27.0 °F 16.7 °F 19.9 °F 75% 29.41 in 7.0 mi WNW 11.5 mph 23.0 mph 0.00 in Snow Light Snow
5:53 PM 28.0 °F 17.5 °F 19.9 °F 72% 29.40 in 10.0 mi WNW 12.7 mph 25.3 mph 0.00 in   Overcast
6:11 PM 26.6 °F 12.0 °F 19.4 °F 74% 29.33 in 3.0 mi WNW 23.0 mph 33.4 mph 0.00 in Snow Light Snow
6:13 PM 26.6 °F 12.0 °F 19.4 °F 74% 29.33 in 2.5 mi NW 23.0 mph 33.4 mph 0.00 in Snow Light Snow
6:22 PM 26.6 °F 12.7 °F 19.4 °F 74% 29.34 in 4.0 mi NW 20.7 mph 33.4 mph 0.00 in   Overcast
6:29 PM 26.6 °F 12.4 °F 19.4 °F 74% 29.34 in 2.5 mi NW 21.9 mph 29.9 mph 0.00 in Snow Light Snow
6:37 PM 26.6 °F 10.6 °F 19.4 °F 74% 29.34 in 1.5 mi NW 28.8 mph 35.7 mph 0.00 in Snow Light Snow
6:45 PM 24.8 °F 7.9 °F 17.6 °F 74% 29.34 in 0.8 mi NW 29.9 mph 41.4 mph 0.00 in   Mostly Cloudy
6:53 PM 23.0 °F 6.3 °F 14.0 °F 68% 29.43 in 0.8 mi NW 26.5 mph 41.4 mph 0.00 in Snow Blowing Snow
7:00 PM 21.2 °F 2.7 °F 10.4 °F 63% 29.37 in 1.2 mi NW 31.1 mph 40.3 mph N/A Snow Blowing Snow
7:11 PM 19.4 °F 0.2 °F 10.4 °F 68% 29.37 in 0.8 mi NW 31.1 mph 43.7 mph N/A Snow Blowing Snow
7:21 PM 19.4 °F -0.0 °F 8.6 °F 63% 29.38 in 1.2 mi NW 32.2 mph 40.3 mph 0.00 in Snow Blowing Snow
7:31 PM 19.4 °F 2.1 °F 8.6 °F 63% 29.39 in 3.0 mi NW 24.2 mph 34.5 mph 0.00 in Snow Blowing Snow
7:53 PM 17.1 °F -1.0 °F 8.1 °F 68% 29.48 in 3.0 mi NW 24.2 mph 33.4 mph 0.00 in Snow Blowing Snow
8:53 PM 15.1 °F -2.5 °F 6.1 °F 68% 29.50 in 9.0 mi NW 20.7 mph 29.9 mph 0.00 in   Partly Cloudy
9:53 PM 12.0 °F -7.7 °F 3.0 °F 67% 29.53 in 4.0 mi NW 24.2 mph 31.1 mph 0.00 in Snow Blowing Snow
10:53 PM 9.0 °F -11.8 °F 1.0 °F 70% 29.56 in 3.0 mi NW 24.2 mph 32.2 mph N/A Snow Blowing Snow
11:53 PM 3.9 °F -18.1 °F -2.9 °F 73% 29.60 in 3.0 mi NW 23.0 mph 31.1 mph N/A Snow Blowing Snow